TimeAKDT,TemperatureF,Dew PointF,Humidity,Sea Level PressureIn,VisibilityMPH,Wind Direction,Wind SpeedMPH,Gust SpeedMPH,PrecipitationIn,Events,Conditions,WindDirDegrees,DateUTC
12:16 AM,39.2,33.8,81,30.17,10.0,Calm,Calm,-,N/A,,Overcast,0,2012-10-07 08:16:00
12:36 AM,39.2,33.8,81,30.18,10.0,Calm,Calm,-,N/A,,Overcast,0,2012-10-07 08:36:00
12:56 AM,39.2,35.6,87,30.18,10.0,SSW,5.8,-,N/A,,Overcast,210,2012-10-07 08:56:00
1:16 AM,39.2,35.6,87,30.18,10.0,Calm,Calm,-,N/A,,Overcast,0,2012-10-07 09:16:00
1:36 AM,39.2,33.8,81,30.18,10.0,SW,4.6,-,N/A,,Overcast,220,2012-10-07 09:36:00
1:56 AM,39.2,33.8,81,30.18,10.0,SSW,5.8,-,N/A,,Overcast,210,2012-10-07 09:56:00
2:16 AM,39.2,33.8,81,30.18,10.0,SW,4.6,-,N/A,,Overcast,230,2012-10-07 10:16:00
2:36 AM,39.2,33.8,81,30.18,10.0,SW,3.5,-,N/A,,Overcast,220,2012-10-07 10:36:00
2:56 AM,37.4,33.8,87,30.18,10.0,SSW,4.6,-,N/A,,Overcast,210,2012-10-07 10:56:00
3:16 AM,37.4,33.8,87,30.18,10.0,SW,5.8,-,N/A,,Mostly Cloudy,220,2012-10-07 11:16:00
3:36 AM,37.4,33.8,87,30.18,10.0,SSW,5.8,-,N/A,,Overcast,210,2012-10-07 11:36:00
3:56 AM,37.4,33.8,87,30.18,10.0,SSW,5.8,-,N/A,,Scattered Clouds,210,2012-10-07 11:56:00
4:16 AM,37.4,33.8,87,30.19,10.0,SW,3.5,-,N/A,,Partly Cloudy,220,2012-10-07 12:16:00
4:36 AM,35.6,33.8,93,30.18,10.0,SW,5.8,-,N/A,,Partly Cloudy,220,2012-10-07 12:36:00
4:56 AM,35.6,33.8,93,30.18,10.0,SSW,6.9,-,N/A,,Clear,210,2012-10-07 12:56:00
5:16 AM,35.6,33.8,93,30.18,10.0,SW,6.9,-,N/A,,Scattered Clouds,220,2012-10-07 13:16:00
5:36 AM,35.6,33.8,93,30.19,10.0,SW,5.8,-,N/A,,Mostly Cloudy,230,2012-10-07 13:36:00
5:56 AM,35.6,33.8,93,30.19,10.0,SW,4.6,-,N/A,,Overcast,230,2012-10-07 13:56:00
6:16 AM,35.6,32.0,87,30.19,10.0,Calm,Calm,-,N/A,,Overcast,0,2012-10-07 14:16:00
6:36 AM,35.6,32.0,87,30.18,10.0,SW,3.5,-,N/A,,Mostly Cloudy,220,2012-10-07 14:36:00
6:56 AM,35.6,32.0,87,30.18,10.0,SW,3.5,-,N/A,,Partly Cloudy,220,2012-10-07 14:56:00
7:16 AM,35.6,32.0,87,30.19,10.0,West,4.6,-,N/A,,Clear,260,2012-10-07 15:16:00
7:56 AM,35.6,30.2,81,30.19,10.0,SW,3.5,-,N/A,,Mostly Cloudy,230,2012-10-07 15:56:00
8:16 AM,33.8,30.2,87,30.20,10.0,SW,4.6,-,N/A,,Scattered Clouds,220,2012-10-07 16:16:00
8:36 AM,33.8,32.0,93,30.20,10.0,SSW,4.6,-,N/A,,Partly Cloudy,210,2012-10-07 16:36:00
8:56 AM,35.6,32.0,87,30.20,10.0,WSW,3.5,-,N/A,,Partly Cloudy,250,2012-10-07 16:56:00
9:16 AM,35.6,32.0,87,30.20,10.0,Calm,Calm,-,N/A,,Partly Cloudy,0,2012-10-07 17:16:00
9:36 AM,35.6,30.2,81,30.20,10.0,Calm,Calm,-,N/A,,Partly Cloudy,0,2012-10-07 17:36:00
9:56 AM,35.6,32.0,87,30.20,10.0,WSW,3.5,-,N/A,,Partly Cloudy,240,2012-10-07 17:56:00
10:16 AM,35.6,32.0,87,30.20,10.0,WSW,4.6,-,N/A,,Partly Cloudy,250,2012-10-07 18:16:00
10:36 AM,35.6,32.0,87,30.20,10.0,SSW,3.5,-,N/A,,Partly Cloudy,210,2012-10-07 18:36:00
10:56 AM,35.6,32.0,87,30.20,10.0,SW,3.5,-,N/A,,Partly Cloudy,220,2012-10-07 18:56:00
11:16 AM,37.4,32.0,81,30.21,10.0,SW,5.8,-,N/A,,Overcast,220,2012-10-07 19:16:00
11:36 AM,37.4,33.8,87,30.21,10.0,SW,6.9,-,N/A,,Overcast,220,2012-10-07 19:36:00
11:56 AM,39.2,33.8,81,30.21,10.0,WSW,4.6,-,N/A,,Mostly Cloudy,240,2012-10-07 19:56:00
12:16 PM,39.2,33.8,81,30.21,10.0,WSW,5.8,-,N/A,,Mostly Cloudy,240,2012-10-07 20:16:00
12:36 PM,39.2,33.8,81,30.20,10.0,WSW,6.9,-,N/A,,Mostly Cloudy,250,2012-10-07 20:36:00
12:56 PM,41.0,33.8,76,30.20,10.0,WSW,5.8,-,N/A,,Mostly Cloudy,250,2012-10-07 20:56:00
1:16 PM,42.8,33.8,70,30.20,10.0,WSW,6.9,-,N/A,,Mostly Cloudy,250,2012-10-07 21:16:00
1:36 PM,42.8,33.8,70,30.20,10.0,West,9.2,-,N/A,,Mostly Cloudy,260,2012-10-07 21:36:00
1:56 PM,44.6,32.0,61,30.20,10.0,West,8.1,-,N/A,,Mostly Cloudy,270,2012-10-07 21:56:00
2:16 PM,44.6,32.0,61,30.19,10.0,West,6.9,-,N/A,,Mostly Cloudy,280,2012-10-07 22:16:00
2:36 PM,44.6,30.2,57,30.19,10.0,West,9.2,-,N/A,,Mostly Cloudy,270,2012-10-07 22:36:00
2:56 PM,44.6,30.2,57,30.19,10.0,WNW,6.9,-,N/A,,Mostly Cloudy,290,2012-10-07 22:56:00
3:16 PM,44.6,30.2,57,30.19,10.0,WNW,8.1,-,N/A,,Mostly Cloudy,290,2012-10-07 23:16:00
3:36 PM,44.6,32.0,61,30.19,10.0,West,6.9,-,N/A,,Mostly Cloudy,280,2012-10-07 23:36:00
3:56 PM,44.6,30.2,57,30.18,10.0,WSW,3.5,-,N/A,,Mostly Cloudy,250,2012-10-07 23:56:00
4:16 PM,44.6,30.2,57,30.18,10.0,WSW,3.5,-,N/A,,Clear,240,2012-10-08 00:16:00
4:36 PM,44.6,30.2,57,30.17,10.0,WSW,3.5,-,N/A,,Clear,250,2012-10-08 00:36:00
4:56 PM,42.8,30.2,61,30.17,10.0,Calm,Calm,-,N/A,,Clear,0,2012-10-08 00:56:00
5:16 PM,42.8,30.2,61,30.17,10.0,WSW,3.5,-,N/A,,Clear,250,2012-10-08 01:16:00
5:36 PM,42.8,32.0,66,30.16,10.0,Calm,Calm,-,N/A,,Clear,0,2012-10-08 01:36:00
5:56 PM,42.8,32.0,66,30.16,10.0,Calm,Calm,-,N/A,,Clear,0,2012-10-08 01:56:00
6:16 PM,41.0,30.2,65,30.15,10.0,Calm,Calm,-,N/A,,Clear,0,2012-10-08 02:16:00
6:36 PM,41.0,30.2,65,30.15,10.0,Calm,Calm,-,N/A,,Clear,0,2012-10-08 02:36:00
6:56 PM,39.2,30.2,70,30.15,10.0,SSW,5.8,-,N/A,,Clear,210,2012-10-08 02:56:00
7:16 PM,39.2,30.2,70,30.15,10.0,SW,4.6,-,N/A,,Clear,220,2012-10-08 03:16:00
7:36 PM,39.2,30.2,70,30.15,10.0,SW,4.6,-,N/A,,Clear,220,2012-10-08 03:36:00
8:16 PM,39.2,32.0,75,30.15,10.0,West,3.5,-,N/A,,Partly Cloudy,260,2012-10-08 04:16:00
8:36 PM,37.4,30.2,75,30.15,10.0,WSW,3.5,-,N/A,,Partly Cloudy,240,2012-10-08 04:36:00
8:56 PM,37.4,30.2,75,30.15,10.0,SW,3.5,-,N/A,,Scattered Clouds,230,2012-10-08 04:56:00
9:16 PM,37.4,32.0,81,30.15,10.0,WSW,3.5,-,N/A,,Partly Cloudy,250,2012-10-08 05:16:00
9:36 PM,37.4,30.2,75,30.15,10.0,WSW,4.6,-,N/A,,Clear,250,2012-10-08 05:36:00
9:56 PM,37.4,30.2,75,30.15,10.0,West,4.6,-,N/A,,Clear,260,2012-10-08 05:56:00
10:16 PM,37.4,30.2,75,30.15,10.0,WSW,4.6,-,N/A,,Clear,250,2012-10-08 06:16:00
10:36 PM,37.4,30.2,75,30.15,10.0,SW,3.5,-,N/A,,Scattered Clouds,230,2012-10-08 06:36:00
10:56 PM,35.6,30.2,81,30.15,10.0,WSW,3.5,-,N/A,,Partly Cloudy,240,2012-10-08 06:56:00
11:16 PM,35.6,30.2,81,30.15,10.0,WSW,3.5,-,N/A,,Clear,240,2012-10-08 07:16:00
11:36 PM,35.6,30.2,81,30.15,10.0,WSW,3.5,-,N/A,,Clear,250,2012-10-08 07:36:00
11:56 PM,35.6,30.2,81,30.14,10.0,West,3.5,-,N/A,,Partly Cloudy,260,2012-10-08 07:56:00